Weather reports worldwide

Advertisment
Rhyl, United Kingdom (3313): temperature & dewpoint: 04.04.2020 19:00:00 - 10.04.2020 19:00:00 (BST)Rhyl, United Kingdom (3313): wind speed & gusts: 04.04.2020 19:00:00 - 10.04.2020 19:00:00 (BST)Rhyl, United Kingdom (3313): wind direction: 04.04.2020 19:00:00 - 10.04.2020 19:00:00 (BST)Rhyl, United Kingdom (3313): reduced air pressure: 04.04.2020 19:00:00 - 10.04.2020 19:00:00 (BST)Rhyl, United Kingdom (3313): visibility: 04.04.2020 19:00:00 - 10.04.2020 19:00:00 (BST)Rhyl, United Kingdom (3313): precipitation: 04.04.2020 19:00:00 - 10.04.2020 19:00:00 (BST)
Date & Time tt [°C] td [°C] ff [km/h] ff [kn] fx [km/h] fx [kn] dd ppp [hPa] vv [km] rr [mm]
10.04.2020 19:00:00 17,2 12,6 9 5 - - SSE 1021,7 18 0,0
10.04.2020 18:00:00 17,3 12,8 4 2 - - E 1021,4 6 0,0
10.04.2020 17:00:00 19,1 9,5 13 7 - - W 1021,3 13 0,0
10.04.2020 16:00:00 19,4 10,1 13 7 - - WNW 1021,4 14 0,0
10.04.2020 15:00:00 21,9 10,8 11 6 - - ESE 1021,3 18 0,0
10.04.2020 14:00:00 22,2 11,5 9 5 - - SE 1021,7 19 0,0
10.04.2020 13:00:00 20,3 10,5 9 5 - - ESE 1022,2 15 0,0
10.04.2020 12:00:00 19,2 10,8 9 5 - - ESE 1022,8 15 0,0
10.04.2020 11:00:00 17,9 10,3 5 3 - - SE 1023,3 14 0,0
10.04.2020 10:00:00 16,1 9,8 9 5 - - SSE 1023,3 13 0,0
10.04.2020 09:00:00 13,5 8,8 8 4 - - SSE 1023,6 12 0,0
10.04.2020 08:00:00 12,1 8,1 8 4 - - SSE 1023,7 13 0,0
10.04.2020 07:00:00 10,3 7,7 9 5 - - SSE 1023,8 12 0,0
10.04.2020 06:00:00 11,0 7,5 8 4 - - SSE 1023,8 13 0,0
10.04.2020 05:00:00 11,3 7,7 11 6 - - SSE 1023,9 13 0,0
10.04.2020 04:00:00 11,3 7,8 13 7 - - S 1023,9 13 0,0
10.04.2020 03:00:00 10,3 7,7 11 6 - - SSE 1024,2 12 0,0
10.04.2020 02:00:00 11,4 8,0 9 5 - - SE 1024,3 15 0,0
10.04.2020 01:00:00 11,9 7,5 4 2 - - N 1024,6 14 0,0
10.04.2020 00:00:00 13,8 8,1 13 7 - - SE 1024,5 17 0,0
09.04.2020 23:00:00 14,2 8,9 18 10 - - SE 1024,4 20 0,0
09.04.2020 22:00:00 14,9 9,2 18 10 - - SSE 1024,6 20 0,0
09.04.2020 21:00:00 15,5 9,7 16 9 - - SSE 1024,5 15 0,0
09.04.2020 20:00:00 16,4 10,3 11 6 - - SE 1024,0 11 0,0
09.04.2020 19:00:00 17,7 10,7 9 5 - - SE 1023,7 11 0,0
09.04.2020 18:00:00 18,6 10,2 13 7 - - SE 1023,6 13 0,0
09.04.2020 17:00:00 19,1 10,5 11 6 - - SE 1023,6 14 0,0
09.04.2020 16:00:00 19,0 9,9 13 7 - - SE 1023,9 15 0,0
09.04.2020 15:00:00 18,4 9,7 15 8 - - SE 1024,5 17 0,0
09.04.2020 14:00:00 18,2 9,9 11 6 - - SE 1024,8 18 0,0
09.04.2020 13:00:00 18,1 9,1 9 5 - - E 1025,1 23 0,0
09.04.2020 12:00:00 17,3 8,4 9 5 - - ESE 1025,4 27 0,0
09.04.2020 11:00:00 16,4 8,8 8 4 - - ESE 1025,6 29 0,0
09.04.2020 10:00:00 14,1 8,6 4 2 - - E 1025,6 45 0,0
09.04.2020 09:00:00 10,5 7,0 5 3 - - E 1025,6 40 0,0
09.04.2020 08:00:00 8,1 6,2 8 4 - - SSE 1025,3 45 0,0
09.04.2020 07:00:00 6,3 4,7 9 5 - - S 1025,1 35 0,0
09.04.2020 06:00:00 6,0 4,5 8 4 - - S 1025,1 30 0,0
09.04.2020 05:00:00 6,0 4,5 9 5 - - S 1025,0 30 0,0
09.04.2020 04:00:00 6,4 4,7 9 5 - - S 1025,2 30 0,0
09.04.2020 03:00:00 6,6 4,6 9 5 - - SSW 1025,5 30 0,0
09.04.2020 02:00:00 7,1 4,7 8 4 - - S 1025,6 30 0,0
09.04.2020 01:00:00 7,8 4,8 8 4 - - S 1025,5 30 0,0
09.04.2020 00:00:00 7,9 4,7 9 5 - - SSW 1025,6 28 0,0
08.04.2020 23:00:00 8,2 4,7 9 5 - - SSW 1025,7 30 0,0
08.04.2020 22:00:00 8,4 4,5 8 4 - - SSW 1025,7 35 0,0
08.04.2020 21:00:00 8,6 4,5 5 3 - - SW 1025,4 35 0,0
08.04.2020 20:00:00 10,4 4,2 4 2 - - WNW 1025,2 40 0,0
08.04.2020 19:00:00 12,8 4,8 5 3 - - NW 1024,8 45 0,0
08.04.2020 18:00:00 13,4 5,1 9 5 - - NNW 1024,6 40 0,0
08.04.2020 17:00:00 14,9 5,4 9 5 - - N 1024,4 55 0,0
08.04.2020 16:00:00 15,3 4,6 11 6 - - NNW 1024,6 55 0,0
08.04.2020 15:00:00 15,5 4,6 9 5 - - N 1024,9 50 0,0
08.04.2020 14:00:00 15,9 5,1 11 6 - - NNW 1025,1 50 0,0
08.04.2020 13:00:00 15,4 5,1 9 5 - - NNW 1025,2 45 0,0
08.04.2020 12:00:00 15,8 5,9 8 4 - - NNE 1025,5 40 0,0
08.04.2020 11:00:00 13,8 5,2 5 3 - - NNW 1026,1 55 0,0
08.04.2020 10:00:00 14,5 5,5 5 3 - - SW 1025,9 50 0,0
08.04.2020 09:00:00 11,6 6,0 9 5 - - SSW 1025,7 45 0,0
08.04.2020 08:00:00 9,9 4,9 8 4 - - SSW 1025,8 45 0,0
08.04.2020 07:00:00 8,6 4,9 5 3 - - SSE 1025,6 45 0,0
08.04.2020 06:00:00 8,3 4,1 8 4 - - S 1025,6 45 0,0
08.04.2020 05:00:00 8,8 3,6 11 6 - - SSW 1026,2 45 0,0
08.04.2020 04:00:00 7,6 3,3 4 2 - - SSW 1026,2 45 0,0
08.04.2020 03:00:00 7,4 3,4 8 4 - - SSW 1026,6 45 0,0
08.04.2020 02:00:00 7,8 3,1 11 6 - - SSW 1026,8 50 0,0
08.04.2020 01:00:00 8,4 3,7 9 5 - - SSW 1027,2 45 0,0
08.04.2020 00:00:00 7,8 4,3 9 5 - - SSW 1027,4 35 0,0
07.04.2020 23:00:00 7,7 3,8 2 1 - - SSE 1027,3 35 0,0
07.04.2020 22:00:00 7,3 3,3 8 4 - - S 1027,4 35 0,0
07.04.2020 21:00:00 8,1 3,1 4 2 - - SW 1027,1 35 0,0
07.04.2020 20:00:00 10,5 3,7 2 1 - - SSE 1026,8 40 0,0
07.04.2020 19:00:00 12,4 3,4 5 3 - - N 1026,9 35 0,0
07.04.2020 18:00:00 12,7 4,9 8 4 - - N 1027,0 35 0,0
07.04.2020 17:00:00 13,2 3,4 11 6 - - NW 1027,1 40 0,0
07.04.2020 16:00:00 12,7 4,8 15 8 - - NW 1027,3 35 0,0
07.04.2020 15:00:00 16,3 5,7 15 8 - - S 1027,5 45 0,0
07.04.2020 14:00:00 15,9 4,1 13 7 - - SSE 1027,9 50 0,0
07.04.2020 13:00:00 15,1 2,6 15 8 - - S 1028,2 65 0,0
07.04.2020 12:00:00 13,9 3,6 11 6 - - S 1028,8 35 0,0
07.04.2020 11:00:00 12,5 2,7 16 9 - - S 1029,2 35 0,0
07.04.2020 10:00:00 11,0 3,5 9 5 - - SE 1029,3 27 0,0
07.04.2020 09:00:00 8,9 3,8 8 4 - - SE 1029,5 26 0,0
07.04.2020 08:00:00 6,5 3,6 8 4 - - SSE 1029,3 24 0,0
07.04.2020 07:00:00 6,0 3,2 13 7 - - S 1028,9 22 0,0
07.04.2020 06:00:00 5,2 3,2 9 5 - - S 1028,5 20 0,0
07.04.2020 05:00:00 5,9 3,5 9 5 - - SE 1028,3 20 0,0
07.04.2020 04:00:00 6,5 3,8 8 4 - - SSW 1028,0 20 0,0
07.04.2020 03:00:00 6,8 4,2 11 6 - - S 1027,6 20 0,0
07.04.2020 02:00:00 6,5 3,9 9 5 - - SSE 1027,4 20 0,0
07.04.2020 01:00:00 7,2 4,2 8 4 - - S 1026,9 21 0,0
07.04.2020 00:00:00 7,3 4,4 13 7 - - SSW 1026,2 22 0,0
06.04.2020 23:00:00 7,8 4,6 18 10 - - SSW 1025,3 24 0,0
06.04.2020 22:00:00 7,7 4,4 22 12 - - SW 1024,6 23 0,0
06.04.2020 21:00:00 8,4 4,1 18 10 - - SSW 1023,9 25 0,0
06.04.2020 20:00:00 9,5 3,8 15 8 - - SSW 1022,8 26 0,0
06.04.2020 19:00:00 11,2 3,6 13 7 - - SSW 1021,9 30 0,0
06.04.2020 18:00:00 12,9 4,3 13 7 - - WSW 1020,9 30 0,0
06.04.2020 17:00:00 13,5 3,1 15 8 - - W 1019,9 40 0,0
06.04.2020 16:00:00 14,1 5,1 11 6 - - W 1018,7 30 0,0
06.04.2020 15:00:00 13,0 2,9 16 9 - - W 1018,2 40 0,0
06.04.2020 14:00:00 12,4 4,0 13 7 - - W 1016,9 35 0,0
06.04.2020 13:00:00 13,2 6,1 18 10 - - SW 1015,8 - 0,0
06.04.2020 12:00:00 12,1 4,0 13 7 - - W 1014,7 - 0,0
06.04.2020 11:00:00 12,1 3,2 21 11 - - W 1013,5 - 0,0
06.04.2020 10:00:00 11,6 6,2 21 11 - - SW 1012,3 - 0,0
06.04.2020 09:00:00 10,1 6,2 11 6 - - SW 1011,0 - 0,0
06.04.2020 08:00:00 9,8 6,0 18 10 - - SW 1009,6 - 0,0
06.04.2020 07:00:00 9,4 5,8 16 9 - - SW 1008,5 - 0,0
06.04.2020 06:00:00 9,5 6,0 9 5 - - S 1007,2 - 0,0
06.04.2020 05:00:00 10,2 6,7 13 7 - - SSW 1006,3 - 0,0
06.04.2020 04:00:00 10,4 6,9 9 5 - - SW 1005,7 - 0,0
06.04.2020 03:00:00 10,5 7,4 21 11 - - SW 1004,5 - 0,0
06.04.2020 02:00:00 12,9 11,0 11 6 46 25 SSE 1002,8 - 0,2
06.04.2020 01:00:00 13,2 10,6 22 12 50 27 SSE 1002,0 21 0,2
06.04.2020 00:00:00 13,4 10,5 21 11 52 28 S 1002,4 - 0,2
05.04.2020 23:00:00 15,6 7,7 22 12 50 27 SSE 1001,9 - 0,0
05.04.2020 22:00:00 15,9 7,3 28 15 50 27 SSE 1002,4 - 0,0
05.04.2020 21:00:00 15,8 7,0 9 5 - - SSE 1003,0 - 0,0
05.04.2020 20:00:00 16,9 6,7 13 7 52 28 SE 1003,2 - 0,0
05.04.2020 19:00:00 18,3 6,1 24 13 50 27 SSE 1003,3 - 0,0
05.04.2020 18:00:00 20,4 6,1 22 12 48 26 SSE 1003,0 - 0,0
05.04.2020 17:00:00 20,9 7,0 22 12 57 31 SSE 1003,4 - 0,0
05.04.2020 16:00:00 20,6 7,8 22 12 55 30 SE 1004,3 - 0,0
05.04.2020 15:00:00 18,9 6,3 24 13 48 26 SSE 1005,3 - 0,0
05.04.2020 14:00:00 16,3 6,0 16 9 - - SE 1005,8 - 0,0
05.04.2020 13:00:00 14,8 4,8 22 12 - - SE 1006,5 - 0,0
05.04.2020 12:00:00 12,9 4,4 22 12 - - SE 1007,7 - 0,0
05.04.2020 11:00:00 11,8 3,7 24 13 - - SE 1008,8 - 0,0
05.04.2020 10:00:00 11,4 3,6 21 11 - - SE 1009,3 - 0,0
05.04.2020 09:00:00 11,4 3,4 22 12 - - SE 1009,7 - 0,0
05.04.2020 08:00:00 9,3 2,9 21 11 - - SSE 1010,2 - 0,0
05.04.2020 07:00:00 8,0 2,5 16 9 - - SSE 1010,7 - 0,0
05.04.2020 06:00:00 8,2 2,4 21 11 - - SE 1011,1 - 0,0
05.04.2020 05:00:00 8,1 2,2 11 6 - - SSE 1012,0 - 0,0
05.04.2020 04:00:00 8,6 2,6 15 8 - - SE 1012,6 - 0,0
05.04.2020 03:00:00 8,1 2,1 5 3 - - E 1013,5 - 0,0
05.04.2020 02:00:00 8,1 2,2 11 6 - - ESE 1014,3 - 0,0
05.04.2020 01:00:00 7,9 2,3 5 3 50 27 ESE 1015,1 - 0,0
05.04.2020 00:00:00 7,7 2,3 9 5 - - SSE 1015,6 - 0,0
04.04.2020 23:00:00 9,7 3,2 13 7 - - SSE 1015,5 - 0,0
04.04.2020 22:00:00 10,2 3,8 13 7 - - SSE 1015,6 - 0,0
04.04.2020 21:00:00 10,8 4,4 11 6 - - SE 1015,4 - 0,0
04.04.2020 20:00:00 12,1 4,6 9 5 - - SE 1015,0 - 0,0
04.04.2020 19:00:00 13,3 4,6 13 7 - - S 1014,8 - 0,0

tt = temperature
td = dewpoint
ff = wind speed
fx = gusts
dd = wind direction
ppp = reduced air pressure
vv = visibility
rr = precipitation

Next stations